Flagstaff, AZ

7:28 PM MST on June 28, 2017 (GMT -0700)
Flagstaff Pulliam

Weather History for KFLG - November, 2012

Change the Weather History Date:

Thursday, November 29, 2012

  Actual Average Record
Temperature  
Mean Temperature 40 °F 32 °F  
Max Temperature 56 °F 45 °F 68 °F (1949)
Min Temperature 23 °F 19 °F -8 °F (1905)
Degree Days  
Heating Degree Days 25 33  
Month to date heating degree days 731 816  
Since 1 July heating degree days 1420 1699  
Cooling Degree Days 0 0  
Month to date cooling degree days 0 0  
Year to date cooling degree days 164 117  
Moisture  
Dew Point 27 °F    
Average Humidity 62    
Maximum Humidity 88    
Minimum Humidity 35    
Precipitation  
Precipitation 0.00 in 0.05 in 1.42 in (1985)
Month to date precipitation 1.02 1.70  
Year to date precipitation 12.81 19.93  
Snow  
Snow 0.00 in 0.50 in 12.10 in (1985)
Month to date snowfall 1.1 10.2  
Since 1 July snowfall 1.1 11.7  
Snow Depth 0.00 in    
Sea Level Pressure  
Sea Level Pressure 30.18 in    
Wind  
Wind Speed 7 mph (WSW)    
Max Wind Speed 23 mph    
Max Gust Speed 32 mph    
Visibility 10 miles    
Events Rain    
T = Trace of Precipitation, MM = Missing Value Source: NWS Daily Summary

Daily Weather History Graph

Daily Weather History Graph

Search for Another Location

Airport or City:

Trip Planner

Search our weather history database for the weather conditions in past years. The results will help you decide how hot, cold, wet, or windy it might be!

Date:

Astronomy

Nov. 29, 2012 Rise Set
Actual Time 7:15 AM MST 5:14 PM MST
Civil Twilight 6:47 AM MST 5:42 PM MST
Nautical Twilight 6:16 AM MST 6:13 PM MST
Astronomical Twilight 5:45 AM MST 6:44 PM MST
Moon 6:21 PM MST 8:04 AM MST
Length of Visible Light 10h 55m
Length of Day
9h 59m
Full, 99% of the Moon is Illuminated
Nov 29
Full
Dec 6
Last Quarter
Dec 13
New
Dec 19
First Quarter
Dec 28
Full

Hourly Weather History & Observations

Time (MST) Temp. Windchill Dew Point Humidity Pressure Visibility Wind Dir Wind Speed Gust Speed Precip Events Conditions
12:57 AM 28.0 °F - 24.1 °F 85% 30.16 in 10.0 mi Calm Calm - N/A   Clear
1:57 AM 26.1 °F - 23.0 °F 88% 30.17 in 10.0 mi Calm Calm - N/A   Clear
2:57 AM 26.1 °F - 21.9 °F 84% 30.17 in 10.0 mi Calm Calm - N/A   Clear
3:57 AM 26.1 °F - 21.9 °F 84% 30.17 in 10.0 mi Calm Calm - N/A   Clear
4:57 AM 25.0 °F - 21.0 °F 85% 30.19 in 10.0 mi Calm Calm - N/A   Clear
5:57 AM 24.1 °F 19.7 °F 21.9 °F 91% 30.22 in 10.0 mi SW 3.5 mph - N/A   Clear
6:57 AM 25.0 °F 20.7 °F 21.0 °F 85% 30.25 in 10.0 mi SW 3.5 mph - N/A   Clear
7:57 AM 39.0 °F 32.8 °F 28.0 °F 65% 30.21 in 10.0 mi WSW 9.2 mph - N/A   Clear
8:57 AM 45.0 °F 40.1 °F 24.1 °F 44% 30.22 in 10.0 mi WSW 9.2 mph - N/A   Clear
9:57 AM 48.9 °F - 26.1 °F 41% 30.21 in 10.0 mi SW 9.2 mph - N/A   Clear
10:57 AM 53.1 °F - 27.0 °F 37% 30.18 in 10.0 mi SW 10.4 mph - N/A   Clear
11:57 AM 55.0 °F - 28.0 °F 35% 30.16 in 10.0 mi West 11.5 mph 20.7 mph N/A   Clear
12:57 PM 55.0 °F - 30.9 °F 40% 30.14 in 10.0 mi WSW 18.4 mph 25.3 mph N/A   Clear
1:57 PM 54.0 °F - 32.0 °F 43% 30.16 in 10.0 mi WSW 19.6 mph 26.5 mph 0.00 in Rain Light Rain
2:57 PM 54.0 °F - 33.1 °F 45% 30.15 in 10.0 mi SW 19.6 mph 32.2 mph 0.00 in Rain Light Rain
3:57 PM 53.1 °F - 30.0 °F 41% 30.14 in 10.0 mi WSW 15.0 mph 25.3 mph N/A   Clear
4:57 PM 46.9 °F - 28.9 °F 50% 30.19 in 10.0 mi SW 9.2 mph - N/A   Clear
5:57 PM 46.0 °F 42.5 °F 28.0 °F 50% 30.19 in 10.0 mi WSW 6.9 mph - N/A   Clear
6:57 PM 44.1 °F 40.1 °F 28.0 °F 53% 30.21 in 10.0 mi WSW 6.9 mph - N/A   Clear
7:57 PM 42.1 °F 38.4 °F 28.0 °F 58% 30.17 in 10.0 mi WSW 5.8 mph - N/A   Clear
8:57 PM 41.0 °F 35.8 °F 28.9 °F 62% 30.15 in 10.0 mi WSW 8.1 mph - N/A   Clear
9:57 PM 39.9 °F 35.1 °F 30.0 °F 68% 30.14 in 10.0 mi West 6.9 mph - N/A   Clear
10:57 PM 33.1 °F - 27.0 °F 78% 30.16 in 10.0 mi Calm Calm - N/A   Clear
11:57 PM 30.0 °F - 27.0 °F 88% 30.15 in 10.0 mi Calm Calm - N/A   Clear